Location: BAF
(53.9483°N, 27.7497°E)
Time: 23:07:47
(UTC+02:00)

ISS - Pass Details

Date: 05 December 2020
Orbit: 418 x 419 km, 51.6° (Epoch: 16 January)

Event Time Altitude Azimuth Distance (km) Brightness Sun altitude
Rises 16:48:25 0° 273° (W) 2,369 1.2 -8.2°
Reaches altitude 10° 16:50:33 10° 268° (W) 1,503 0.2 -8.5°
Maximum altitude 16:53:49 48° 193° (SSW) 558 -2.8 -8.9°
Drops below altitude 10° 16:57:04 10° 118° (ESE) 1,499 -1.3 -9.3°
Enters shadow 16:58:17 - 114° (ESE) 1,989 -0.7 -9.5°
